Regional Weather Roundup
Issued by NWS Wakefield, VA

Home | Current Version | Previous Version | Text Only | Print | Product List | Glossary Off
Versions: 1 2 3 4 5 6 7 8 9 10 11 12 13 14 15 16 17 18 19 20 21 22 23 24 25 26

000
ASUS41 KAKQ 061615
RWRAKQ

REGIONAL WEATHER ROUNDUP
NATIONAL WEATHER SERVICE WAKEFIELD VA
1100 AM EST TUE DEC 06 2016

Note: "fair" indicates few or no clouds below 12,000 feet with no
significant weather and/or obstructions to visibility. * = Denotes
station may not report precipitation (e.g., rain,snow,etc.),
thunder or fog.

VAZ042-051-052>054-056-061700-
NORTHERN VIRGINIA

CITY           SKY/WX    TMP DP  RH WIND       PRES   REMARKS
WASH NATIONAL  LGT RAIN  43  37  79 NE10      30.05F
DULLES         LGT RAIN  40  35  83 CALM      30.05F
FORT BELVOIR   LGT RAIN  41  37  84 CALM      30.05F
QUANTICO       LGT RAIN  42  36  79 NE10      30.06F
FREDERICKSBRG* LGT RAIN  42  40  96 NE3       30.04F
STAFFORD*      LGT RAIN  40  38  93 NE5       30.08F
WARRENTON      LGT RAIN  41  35  80 NE3       30.03F
CULPEPER*      LGT RAIN  41  39  94 CALM      30.05F
MANASSAS*      RAIN      39  39 100 CALM      30.07F FOG
LEESBURG*      RAIN      39  39 100 MISG      30.06F
WINCHESTER     RAIN      36  34  93 CALM      30.03F
FRONT ROYAL*   CLOUDY    37  36  93 CALM      30.02F
LURAY*         LGT RAIN  37  37 100 CALM      30.01F
$$

VAZ048-049-060>072-079>083-061700-
CENTRAL AND SOUTH CENTRAL VIRGINIA

CITY           SKY/WX    TMP DP  RH WIND       PRES   REMARKS
RICHMOND       LGT RAIN  42  41  96 N10       29.98F FOG
CHESTERFIELD*  CLOUDY    43  27  52 N7        29.99F
PETERSBURG*    RAIN      43  41  95 N9        29.96F
HANOVER        RAIN      41  39  93 N5        30.01F FOG
TAPPAHANNOCK*  RAIN      44  44 100 N3        30.02F
QUINTON*       CLOUDY    43  42  99 NE5       29.98F FOG
CHARLOTTSVILLE LGT RAIN  40  36  86 NE8       30.02F FOG
GORDONSVILLE*  CLOUDY    39  38  94 NE6       30.02F FOG
ORANGE*        LGT RAIN  41  39  93 CALM      30.04F
LOUISA*        RAIN      43  43 100 NE5       30.01F
BUMPASS*       CLOUDY    40  40  99 CALM      30.03F
FARMVILLE*     HVY RAIN  42  42  99 N10       29.96F
CREWE*         CLOUDY    41  41 100 NE6       29.96F
FORT PICKETT*  CLOUDY   N/A N/A N/A NE9       29.95F
CHASE CITY*    CLOUDY    42  41  95 N6        29.94F
CLARKSVILLE*   CLOUDY    43  43 100 NE7       29.91F
SOUTH HILL*    CLOUDY    43  43 100 NE6       29.98F
LAWRENCEVILLE* CLOUDY    43  42  97 NE8       29.92F
EMPORIA*       RAIN      45  45 100 NE3       29.94F
$$

VAZ088>098-061700-
SOUTHEAST VIRGINIA

CITY           SKY/WX    TMP DP  RH WIND       PRES   REMARKS
NORFOLK        RAIN      51  47  86 E15G22    29.93F FOG
VIRGINIA BEACH LGT RAIN  51  47  86 E15       29.93F
NORFOLK NAVAL  RAIN      51  47  86 E15G29    29.95F FOG
WEST POINT*    CLOUDY    46  45  95 NE8       29.99F
SALUDA*        CLOUDY    46  46  97 E8        29.99F
NEWPORT NEWS   RAIN      49  47  93 E14       29.95F FOG
LANGLEY AFB    LGT RAIN  50  49  95 E16       29.94F
FORT EUSTIS    LGT RAIN  49  46  91 E12       29.92F
WILLIAMSBURG*  CLOUDY    48  48 100 E3        29.96F
HR EXEC AP*    CLOUDY    50  46  87 E13       29.92F
FRANKLIN*      DRIZZLE   48  47  95 NE10      29.92F
US460-WAKEFLD  LGT RAIN  47  46  97 NE5       29.93F FOG
$$

VAZ020-022-025-037-045-061700-
WEST CENTRAL AND SOUTHWEST VIRGINIA

CITY           SKY/WX    TMP DP  RH WIND       PRES   REMARKS
STAUNTON*      RAIN      37  35  93 NE5       29.99F
WAYNESBORO*    CLOUDY    36  34  92 E6        29.96F
HOT SPRINGS VA SNOW      30  30 100 CALM      29.80F VSB<1/4
LYNCHBURG      RAIN      39  38  96 NE9       29.97F FOG
DANVILLE       LGT RAIN  43  43 100 NE14      29.90F FOG
SOUTH BOSTON*  CLOUDY    43  42  95 NE6       29.93F
MARTINSVILLE   RAIN      41  39  95 NE9       29.93F
ROANOKE        RAIN      41  38  89 E10       29.95F FOG
BLACKSBURG     LGT RAIN  38  38  98 E13G22    29.89F
DUBLIN*        RAIN      40  39  97 E10       29.86F
MARION*        CLOUDY    39  38  94 E15G26    29.82F FOG
HILLSVILLE*    LGT SNOW  37  37 100 SE8       29.82F
RICHLANDS*     CLOUDY    40  37  89 SE7G25    29.74F
WISE*          LGT RAIN  43  43 100 SE10      29.74F
ABINGDON*      CLOUDY    45  39  79 NE5       29.78R
$$

MDZ021>025-VAZ099-100-061700-
SOUTHERN MARYLAND AND THE DELMARVA PENINSULA

CITY           SKY/WX    TMP DP  RH WIND       PRES   REMARKS
PATUXENT RIVER LGT RAIN  43  38  82 E9        30.02F
BAY BRIDGE APT LGT RAIN  43  34  70 E6        30.06F
LEONARDTOWN    CLOUDY    41  37  87 CALM      30.03F
DOVER          CLOUDY    43  37  78 E10       30.05F
GEORGETOWN     CLOUDY    49  39  68 E10       30.05F
EASTON         CLOUDY    45  34  65 E7        30.09F
CAMBRIDGE      CLOUDY    43  37  81 NE8       30.02F
SALISBURY      CLOUDY    48  42  80 E9        30.02F
OCEAN CITY     LGT RAIN  50  42  74 E10       30.04F
WALLOPS ISLAND RAIN      50  45  83 E16       29.99F
ACCOMACK*      RAIN      49  47  92 E9G16     29.99F
$$

NCZ012>017-030>032-061700-
NORTH CENTRAL AND EASTERN NORTH CAROLINA

CITY           SKY/WX    TMP DP  RH WIND       PRES   REMARKS
ROANOKE RAPIDS LGT RAIN  45  45 100 NE9       29.90F
RALEIGH        LGT RAIN  47  45  93 E10G18    29.86F VSB 1
ELIZABETH CITY LGT RAIN  53  51  93 NE15      29.91F FOG
AHOSKIE*       RAIN      47  46  98 NE6       29.92F
EDENTON*       RAIN      54  51  91 E8        29.91F
CURRITUCK*     LGT RAIN  53  53 100 NE10G17   29.95F
KILL DEVIL HLS DRIZZLE   56  56 100 E9        29.90F
MANTEO         DRIZZLE   56  56  98 E8        29.92F
CAPE HATTERAS  LGT RAIN  63  60  90 E18       29.86F FOG
TARBORO*       NOT AVBL
GOLDSBORO      LGT RAIN  51  51 100 E10       29.82F
WASHINGTON     LGT RAIN  51  50  96 E13       29.87F
GREENVILLE     LGT RAIN  52  52 100 E8        29.89F
NEW BERN       LGT RAIN  54  53  97 NE6       29.84F
WILMINGTON     LGT RAIN  62  62 100 NE12      29.78F FOG
$$

VAZ048-061700-
ELSEWHERE

CITY           SKY/WX    TMP DP  RH WIND       PRES   REMARKS
HARRISBURG PA  CLOUDY    39  33  79 CALM      30.06F
BALTIMORE      LGT RAIN  41  35  79 E8        30.07F
ANNAPOLIS      LGT RAIN  45  34  65 E6        30.07F
ANDREWS AFB    LGT RAIN  42  35  79 NE8       30.02F
PHILADELPHIA   CLOUDY    43  31  62 E12       30.08F
HENDERSON NC   LGT RAIN  41  40  97 NE7       29.91F
GREENSBORO     RAIN      44  43  96 E14       29.85F FOG
ROCKY MOUNT    LGT RAIN  48  48 100 NE9       29.87F FOG
$$

VAZ100-061700-
MARINE

STATION/POSITION TIME  TEMP    WIND        PRES    WAVE   SWELL
                       AIR SEA DIR/SP/G            HT/PER HT/PER
                 (UTC) (F)     (DEG/KT/KT) (MB)    (FT/S) (FT/S)
BRANDYWINE LGT   1548   44      80/ 10/ 12   N/A
CAPE MAY NJ      1548   47 48   70/  5/  9 1017.7F
LEWES DE         1548   49 47  110/ 12/ 18 1017.6F
OCEAN-CITY-INLET 1548   50 49  110/  9/ 14 1017.6F
WACHAPREAGUE VA  1548   50 48   80/ 13/ 16 1015.5F
THOMAS POINT MD  1600   43 48   60/ 12/ 14   N/A
GOOSES REEF MD   1600   44 50  100/ 14/ 17 1017.2    1/ 2
COVE POINT MD    1548   42      90/ 13/ 16 1017.1F
SOLOMONS ISLAND  1548   43 50   50/  8/ 11   N/A
BISHOPS HEAD MD  1548   44 45   40/  8/ 11 1016.3F
PINEY POINT MD   1548           80/  7/  9   N/A
POTOMAC MD       1600   46 51   90/ 14/ 17 1014.9    1/ 3
CAMBRIDGE MD     1548   44 47   60/  8/ 12 1016.6F
LEWISETTA VA     1548   46 48   90/ 14/ 18 1015.8F
RAPPAHANNOCK LGT 1548           70/ 17/ 20 1015.2F
STINGRAY PT      1600   48      90/ 16/ 17 1015.2    2/ 3
YORK RVR RNG VA  1548   50      90/ 22/ 26 1014.0F
YORKTOWN VA      1548   50 51   80/ 18/ 21 1014.5F
JAMESTOWN VA     1600   47 52   70/  6/ 12   N/A     0
DOMINION TERM VA 1548   51      80/ 14/ 21 1014.1F
KIPTOPEKE VA     1548      51   80/ 10/ 19   N/A
CHES BAY BRIDGE  1548   51 53   80/ 25/ 29 1013.6F
CAPE HENRY VA    1548   52      70/ 28/ 32   N/A
WILLOUBY STN VA  1548   51      80/ 20/ 24 1014.7F
S CRANEY ISL VA  1548   51      70/ 12/ 15 1013.9F
CAPE HENRY BUOY  1542      56                N/A     6/ 6   2/11
1ST LANDING BUOY 1600   51 54              1013.3    4/ 4
CAPE CHARLES BUO 1556      55                N/A     6/ 5   2/11
OFFSHORE WE BUOY 1551      56                N/A     7/ 6   2/11
64NM E OF VA BCH 1550   59 60   90/ 21/ 25 1013.1F   7/ 8   5/ 8
DUCK PIER NC     1548   56 54   70/ 21/ 24 1012.5F
44100 DUCK FRF   1535      56                N/A     7/ 6   2/11
OREGON INLET NC  1536   59 56   80/  9/ 13 1012.5F
HATTERAS NC      1548   63 60  110/ 12/ 18 1010.6F
DIAMOND SHLS NC  1550   68 75  120/ 27/ 33 1010.1F   7/ 6   2/14
CAPE LOOKOUT NC  1500   64     110/ 20/ 22 1010.7F
$$




USA.gov is the U.S. government's official web portal to all federal, state and local government web resources and services.